Location: Possagno
(45.8500°N, 11.8667°E)
Time: 03:16:33
(UTC+00:00)

STARLINK-1291 - Pass Details

Date: 07 June 2020
Orbit: 548 x 551 km, 53.0° (Epoch: 11 July)

Event Time Altitude Azimuth Distance (km) Brightness Sun altitude
Exits shadow 23:35:37 43° 115° (ESE) 773 4.1 -21.2°
Drops below altitude 10° 23:39:02 10° 67° (ENE) 1,818 6.6 -21.1°
Enters shadow 00:39:40 -62° 243° (WSW) 11,854 10.3 -18.5°
Maximum altitude 01:14:38 46° 339° (NNW) 744 4.5 -15.9°
